This is the latest recevied weather packets stored in our database for station/object KI6SYE. If no packets are shown the sender has not sent any weather packets the latest 10 day(s).
| Time | Temp. | Humidity | Pressure | Rain* | Wind** | Luminosity | Snow |
|---|---|---|---|---|---|---|---|
| 1788207505 | 23.89° C | 78% | 1013.5 hPa | 0 mm | - | 730 W/m² | - |
| 1788207203 | 23.89° C | 78% | 1013.7 hPa | 0 mm | - | 733 W/m² | - |
| 1788206899 | 23.89° C | 78% | 1013.8 hPa | 0 mm | - | 732 W/m² | - |
| 1788206594 | 23.89° C | 76% | 1013.6 hPa | 0 mm | - | 736 W/m² | - |
| 1788206290 | 23.33° C | 78% | 1013.6 hPa | 0 mm | - | 737 W/m² | - |
| 1788205985 | 23.89° C | 77% | 1013.5 hPa | 0 mm | - | 738 W/m² | - |
| 1788205681 | 23.33° C | 77% | 1013.7 hPa | 0 mm | - | 738 W/m² | - |
| 1788205376 | 23.33° C | 78% | 1013.6 hPa | 0 mm | - | 737 W/m² | - |
| 1788205074 | 23.89° C | 77% | 1013.8 hPa | 0 mm | - | 737 W/m² | - |
| 1788204770 | 23.89° C | 76% | 1014 hPa | 0 mm | - | 735 W/m² | - |
| 1788204466 | 23.33° C | 76% | 1013.9 hPa | 0 mm | - | 733 W/m² | - |
| 1788204160 | 23.89° C | 76% | 1014 hPa | 0 mm | - | 731 W/m² | - |
| 1788203857 | 23.33° C | 77% | 1013.9 hPa | 0 mm | - | 728 W/m² | - |
| 1788203552 | 23.33° C | 77% | 1014.2 hPa | 0 mm | - | 726 W/m² | - |
| 1788203247 | 23.33° C | 77% | 1014 hPa | 0 mm | - | 723 W/m² | - |
| 1788202946 | 23.33° C | 78% | 1013.8 hPa | 0 mm | - | 719 W/m² | - |
| 1788202641 | 23.33° C | 76% | 1013.8 hPa | 0 mm | - | 716 W/m² | - |
| 1788202337 | 23.33° C | 77% | 1014.1 hPa | 0 mm | - | 710 W/m² | - |
| 1788202036 | 23.33° C | 78% | 1014.1 hPa | 0 mm | - | 705 W/m² | - |
| 1788201732 | 23.33° C | 78% | 1014.1 hPa | 0 mm | - | 700 W/m² | - |
| 1788201431 | 23.33° C | 76% | 1014 hPa | 0 mm | - | 693 W/m² | - |
| 1788201126 | 23.33° C | 78% | 1013.9 hPa | 0 mm | - | 690 W/m² | - |
| 1788200825 | 23.89° C | 78% | 1014 hPa | 0 mm | - | 681 W/m² | - |
| 1788200520 | 23.89° C | 78% | 1014 hPa | 0 mm | - | 675 W/m² | - |
| 1788200216 | 22.78° C | 79% | 1013.9 hPa | 0 mm | - | 669 W/m² | - |
* Rain latest hour (hover to see other rain measurements)
** Current wind speed in m/s (hover to see current wind gust speed)